Flag for Angola Weather past 2 weeks in Cabinda, Angola

Now
79 °F

Partly cloudy.


Feels Like: 83 °F
Forecast: 78 / 84 °F
Wind: 5 mph from Southeast

Location: Pointe Airport-Noire

Current Time: Dec 20, 2014 at 5:39:13 AM

Latest Report: Dec 20, 2014 at 5:00 AM


Visibility: 5 mi

Pressure: 29.89 "Hg

Humidity: 94%

Dew point: 77 °F

Location of CabindaLocation

Historic Weather in Cabinda — Graph

°F

Cabinda temperature yesterday

Maximum temperature yesterday: 86 °F (at 12:00 PM)
Minimum temperature yesterday: 77 °F (at 4:00 AM)
Average temperature yesterday: 82 °F

Past Weeks' High & Low Weather Summary

 TemperatureHumidityPressure
High88 °F (Dec 13, 11:00 AM)100% (Dec 14, 6:00 AM)29.95 "Hg (Dec 14, 6:00 AM)
Low73 °F (Dec 15, 2:00 PM)16% (Dec 17, 12:00 PM)29.74 "Hg (Dec 10, 4:00 PM)
Average81 °F82%29.85 "Hg
* Reported Dec 5 4:00 AM — Dec 20 4:00 AM, Cabinda, Weather by CustomWeather, © 2014

Note: Actual official high and low records may vary slightly from our data, if they occured in-between our weather recording intervals... More about our weather records

Advertising

Cabinda weather history for previous 24 hours

 ConditionsComfort  
Time TempWeatherWind HumidityBarometerVisibility
4:00 AM
Dec 20
79 °FThunderstorms. Partly cloudy.3 mph94%29.89 "Hg5 mi
3:00 AM81 °FThunderstorms. Partly cloudy.5 mph89%29.89 "Hg5 mi
2:00 AM81 °FPartly cloudy.6 mph89%29.89 "Hg5 mi
1:00 AM81 °FPartly cloudy.7 mph94%29.89 "Hg5 mi
12:00 AM81 °FMostly cloudy.5 mph94%29.92 "Hg5 mi
11:00 PM
Dec 19
81 °FPassing clouds.6 mph89%29.92 "HgN/A
10:00 PM81 °FOvercast.7 mph89%29.89 "HgN/A
9:00 PM81 °FPassing clouds.6 mph89%29.89 "HgN/A
8:00 PM81 °FPassing clouds.8 mph89%29.86 "HgN/A
7:00 PM82 °FPassing clouds.8 mph79%29.83 "HgN/A
6:00 PM82 °FPassing clouds.10 mph79%29.80 "HgN/A
5:00 PM84 °FPassing clouds.10 mph74%29.80 "HgN/A
4:00 PM86 °FPassing clouds.13 mph70%29.80 "HgN/A
3:00 PM86 °FScattered clouds.13 mph62%29.80 "HgN/A
2:00 PM86 °FScattered clouds.13 mph66%29.83 "HgN/A
1:00 PM84 °FScattered clouds.13 mph70%29.86 "HgN/A
12:00 PM86 °FScattered clouds.12 mph66%29.89 "HgN/A
11:00 AM84 °FScattered clouds.12 mph74%29.92 "HgN/A
10:00 AM84 °FScattered clouds.6 mph70%29.92 "HgN/A
9:00 AM82 °FScattered clouds.8 mph74%29.92 "HgN/A
8:00 AM81 °FScattered clouds.8 mph84%29.92 "HgN/A
7:00 AM77 °FPassing clouds.6 mph89%29.92 "HgN/A
6:00 AM77 °FPartly sunny.6 mph94%29.89 "Hg5 mi
5:00 AM77 °FPassing clouds.5 mph94%29.86 "Hg5 mi
Weather by CustomWeather, © 2014

See weather overviewHow to use our weather pages